Location: Asheville, NC
(35.6000°N, 82.5500°W)
Time: 11:53:14

Vanguard 2 Rocket - Pass Details

Date: 14 December 2017
Orbit: 554 x 3327 km, 32.9° (Epoch: 20 March)

Event Time Altitude Azimuth Distance (km) Brightness Sun altitude
Rises 02:22:09 0° 285° (WNW) 7,092 - -61.8°
Reaches altitude 10° 02:27:16 10° 278° (W) 6,218 - -60.8°
Maximum altitude 02:44:43 38° 220° (SW) 4,185 - -57.3°
Exits shadow 02:55:35 20° 169° (S) 4,681 10.4 -55.2°
Drops below altitude 10° 02:59:22 10° 159° (SSE) 5,206 10.8 -54.4°
Sets 03:03:14 0° 151° (SSE) 5,873 11.2 -53.7°
